TimeCDT,TemperatureF,Dew PointF,Humidity,Sea Level PressureIn,VisibilityMPH,Wind Direction,Wind SpeedMPH,Gust SpeedMPH,PrecipitationIn,Events,Conditions,WindDirDegrees,DateUTC
12:15 AM,28.4,17.6,64,30.36,10.0,North,6.9,-,N/A,,Clear,10,2013-03-14 05:15:00
12:35 AM,28.4,17.6,64,30.37,10.0,North,6.9,-,N/A,,Clear,10,2013-03-14 05:35:00
1:15 AM,26.6,17.6,69,30.37,10.0,North,5.8,-,N/A,,Clear,360,2013-03-14 06:15:00
1:55 AM,26.6,17.6,69,30.37,10.0,North,5.8,-,N/A,,Clear,360,2013-03-14 06:55:00
2:15 AM,26.6,17.6,69,30.38,10.0,North,3.5,-,N/A,,Clear,360,2013-03-14 07:15:00
2:35 AM,26.6,17.6,69,30.38,10.0,Calm,Calm,-,N/A,,Clear,0,2013-03-14 07:35:00
2:55 AM,26.6,17.6,69,30.38,10.0,Calm,Calm,-,N/A,,Clear,0,2013-03-14 07:55:00
3:15 AM,24.8,17.6,74,30.37,10.0,Calm,Calm,-,N/A,,Clear,0,2013-03-14 08:15:00
3:35 AM,24.8,17.6,74,30.37,10.0,North,3.5,-,N/A,,Clear,360,2013-03-14 08:35:00
3:55 AM,24.8,17.6,74,30.37,10.0,Calm,Calm,-,N/A,,Clear,0,2013-03-14 08:55:00
4:15 AM,24.8,17.6,74,30.37,10.0,NNW,3.5,-,N/A,,Clear,340,2013-03-14 09:15:00
4:35 AM,21.2,15.8,80,30.38,10.0,Calm,Calm,-,N/A,,Clear,0,2013-03-14 09:35:00
4:55 AM,19.4,15.8,86,30.38,10.0,Calm,Calm,-,N/A,,Clear,0,2013-03-14 09:55:00
5:15 AM,21.2,15.8,80,30.37,10.0,Calm,Calm,-,N/A,,Clear,0,2013-03-14 10:15:00
5:35 AM,21.2,15.8,80,30.38,10.0,Calm,Calm,-,N/A,,Clear,0,2013-03-14 10:35:00
5:55 AM,19.4,15.8,86,30.39,10.0,Calm,Calm,-,N/A,,Clear,0,2013-03-14 10:55:00
6:15 AM,23.0,17.6,80,30.39,10.0,Calm,Calm,-,N/A,,Clear,0,2013-03-14 11:15:00
6:35 AM,21.2,15.8,80,30.39,10.0,Calm,Calm,-,N/A,,Clear,0,2013-03-14 11:35:00
6:55 AM,19.4,15.8,86,30.39,10.0,Calm,Calm,-,N/A,,Clear,0,2013-03-14 11:55:00
7:15 AM,19.4,15.8,86,30.38,10.0,Calm,Calm,-,N/A,,Clear,0,2013-03-14 12:15:00
7:35 AM,21.2,17.6,86,30.39,10.0,North,3.5,-,N/A,,Clear,10,2013-03-14 12:35:00
7:55 AM,24.8,19.4,80,30.40,10.0,Calm,Calm,-,N/A,,Clear,0,2013-03-14 12:55:00
8:15 AM,26.6,17.6,69,30.40,10.0,NNE,3.5,-,N/A,,Clear,30,2013-03-14 13:15:00
8:35 AM,28.4,17.6,64,30.41,10.0,NE,6.9,-,N/A,,Clear,50,2013-03-14 13:35:00
8:55 AM,30.2,17.6,60,30.41,10.0,NE,8.1,-,N/A,,Clear,50,2013-03-14 13:55:00
9:15 AM,30.2,17.6,60,30.42,10.0,NNE,5.8,-,N/A,,Clear,30,2013-03-14 14:15:00
9:35 AM,30.2,17.6,60,30.41,10.0,NE,6.9,-,N/A,,Clear,40,2013-03-14 14:35:00
9:55 AM,32.0,17.6,55,30.41,10.0,NE,8.1,-,N/A,,Clear,40,2013-03-14 14:55:00
10:15 AM,33.8,15.8,48,30.41,10.0,ENE,6.9,-,N/A,,Clear,70,2013-03-14 15:15:00
10:35 AM,35.6,15.8,44,30.40,10.0,North,4.6,-,N/A,,Clear,10,2013-03-14 15:35:00
10:55 AM,35.6,12.2,38,30.39,10.0,Variable,3.5,-,N/A,,Clear,0,2013-03-14 15:55:00
11:15 AM,37.4,12.2,36,30.38,10.0,Calm,Calm,-,N/A,,Clear,0,2013-03-14 16:15:00
11:35 AM,39.2,12.2,33,30.38,10.0,NNE,5.8,-,N/A,,Clear,30,2013-03-14 16:35:00
11:55 AM,41.0,12.2,31,30.37,10.0,Variable,4.6,-,N/A,,Clear,0,2013-03-14 16:55:00
12:15 PM,41.0,12.2,31,30.38,10.0,Variable,3.5,-,N/A,,Clear,0,2013-03-14 17:15:00
12:35 PM,42.8,12.2,29,30.37,10.0,Calm,Calm,-,N/A,,Clear,0,2013-03-14 17:35:00
12:55 PM,44.6,14.0,29,30.36,10.0,Variable,3.5,-,N/A,,Clear,0,2013-03-14 17:55:00
1:15 PM,46.4,15.8,29,30.35,10.0,Calm,Calm,-,N/A,,Clear,0,2013-03-14 18:15:00
1:35 PM,46.4,15.8,29,30.35,10.0,WNW,4.6,-,N/A,,Clear,290,2013-03-14 18:35:00
1:55 PM,46.4,15.8,29,30.34,10.0,North,3.5,-,N/A,,Clear,360,2013-03-14 18:55:00
2:15 PM,48.2,15.8,27,30.32,10.0,West,6.9,-,N/A,,Partly Cloudy,270,2013-03-14 19:15:00
2:35 PM,48.2,14.0,25,30.31,10.0,Calm,Calm,-,N/A,,Partly Cloudy,0,2013-03-14 19:35:00
2:55 PM,50.0,14.0,24,30.30,10.0,West,3.5,-,N/A,,Clear,280,2013-03-14 19:55:00
3:15 PM,50.0,15.8,26,30.30,10.0,WNW,9.2,-,N/A,,Clear,300,2013-03-14 20:15:00
3:35 PM,50.0,15.8,26,30.30,10.0,WNW,8.1,-,N/A,,Clear,300,2013-03-14 20:35:00
3:55 PM,50.0,14.0,24,30.30,10.0,Calm,Calm,-,N/A,,Partly Cloudy,0,2013-03-14 20:55:00
4:15 PM,48.2,15.8,27,30.30,10.0,NW,11.5,-,N/A,,Mostly Cloudy,320,2013-03-14 21:15:00
4:35 PM,46.4,15.8,29,30.30,10.0,North,9.2,-,N/A,,Partly Cloudy,10,2013-03-14 21:35:00
4:55 PM,46.4,15.8,29,30.29,10.0,North,6.9,-,N/A,,Mostly Cloudy,10,2013-03-14 21:55:00
5:15 PM,46.4,15.8,29,30.28,10.0,Calm,Calm,-,N/A,,Mostly Cloudy,0,2013-03-14 22:15:00
5:35 PM,46.4,15.8,29,30.28,10.0,Calm,Calm,-,N/A,,Mostly Cloudy,0,2013-03-14 22:35:00
5:55 PM,46.4,15.8,29,30.26,10.0,Calm,Calm,-,N/A,,Scattered Clouds,0,2013-03-14 22:55:00
6:15 PM,46.4,15.8,29,30.26,10.0,Calm,Calm,-,N/A,,Scattered Clouds,0,2013-03-14 23:15:00
6:35 PM,46.4,17.6,32,30.26,10.0,Calm,Calm,-,N/A,,Mostly Cloudy,0,2013-03-14 23:35:00
6:55 PM,46.4,17.6,32,30.28,10.0,NNE,4.6,-,N/A,,Overcast,30,2013-03-14 23:55:00
7:15 PM,42.8,30.2,61,30.28,8.0,West,3.5,-,N/A,,Mostly Cloudy,270,2013-03-15 00:15:00
7:35 PM,41.0,32.0,70,30.28,10.0,NNW,5.8,-,N/A,,Mostly Cloudy,340,2013-03-15 00:35:00
7:55 PM,39.2,32.0,75,30.28,8.0,WNW,3.5,-,N/A,,Mostly Cloudy,290,2013-03-15 00:55:00
8:15 PM,39.2,33.8,81,30.26,7.0,Calm,Calm,-,N/A,,Mostly Cloudy,0,2013-03-15 01:15:00
8:35 PM,39.2,33.8,81,30.26,7.0,SSE,4.6,-,N/A,,Mostly Cloudy,150,2013-03-15 01:35:00
8:55 PM,39.2,35.6,87,30.25,5.0,SSE,4.6,-,N/A,,Mostly Cloudy,150,2013-03-15 01:55:00
9:15 PM,37.4,35.6,93,30.25,5.0,SSE,4.6,-,N/A,,Mostly Cloudy,160,2013-03-15 02:15:00
9:35 PM,37.4,35.6,93,30.24,5.0,ESE,6.9,-,N/A,,Mostly Cloudy,120,2013-03-15 02:35:00
9:55 PM,37.4,35.6,93,30.24,10.0,East,5.8,-,N/A,,Mostly Cloudy,90,2013-03-15 02:55:00
10:15 PM,37.4,35.6,93,30.24,10.0,ESE,4.6,-,N/A,,Partly Cloudy,110,2013-03-15 03:15:00
10:35 PM,37.4,35.6,93,30.24,10.0,East,3.5,-,N/A,,Partly Cloudy,100,2013-03-15 03:35:00
10:55 PM,37.4,35.6,93,30.24,10.0,East,4.6,-,N/A,,Partly Cloudy,80,2013-03-15 03:55:00
11:15 PM,35.6,35.6,100,30.24,10.0,ESE,3.5,-,N/A,,Scattered Clouds,110,2013-03-15 04:15:00
11:35 PM,35.6,33.8,93,30.24,10.0,East,3.5,-,N/A,,Scattered Clouds,100,2013-03-15 04:35:00
11:55 PM,35.6,33.8,93,30.23,10.0,Calm,Calm,-,N/A,,Clear,0,2013-03-15 04:55:00